Location: Utrecht
(52.0907°N, 5.1214°E)
Time: 08:06:06
(UTC+02:00)

SPROUT - Pass Details

Date: 01 July 2022
Orbit: 588 x 598 km, 97.9° (Epoch: 18 August)

Event Time Altitude Azimuth Distance (km) Brightness Sun altitude
Exits shadow 03:55:50 - 245° (WSW) 2,093 ? -9.4°
Reaches altitude 10° 03:57:01 10° 260° (W) 1,919 ? -9.3°
Maximum altitude 03:58:04 11° 275° (W) 1,869 ? -9.2°
Drops below altitude 10° 03:59:08 10° 289° (WNW) 1,924 ? -9.2°
Sets 04:03:06 0° 328° (NNW) 2,835 ? -8.8°
